Location: Newark
(39.0622°N, 106.5590°E)
Time: 11:02:48
(UTC+00:00)

Vanguard 1 Rocket - Visible Passes

Search period start: 28 January 2020 00:00
Search period end: 07 February 2020 00:00
Orbit: 650 x 4226 km, 34.3° (Epoch: 27 January)

Date Brightness Start Highest point End Pass type
(mag) Time Alt. Az. Time Alt. Az. Time Alt. Az.
29 Jan 12.5 10:32:11 10° WSW 10:41:11 14° SW 10:51:09 10° SSW visible
03 Feb 9.4 22:31:05 10° S 22:33:28 14° SE 22:36:09 10° ESE visible
05 Feb 9.1 22:32:58 10° SSW 22:36:11 19° SSE 22:39:56 10° ESE visible
